Time,TemperatureF,DewpointF,PressureIn,WindDirection,WindDirectionDegrees,WindSpeedMPH,WindSpeedGustMPH,Humidity,HourlyPrecipIn,Conditions,Clouds,dailyrainin,SoftwareType,DateUTC
2013-08-28 00:00:00,71.4,69.0,29.99,NNW,327,0.0,0.0,92,0.00,,,0.00,Wunderground v.1.15,2013-08-28 04:00:00,
2013-08-28 00:10:00,71.3,68.9,29.98,NNW,327,0.0,0.0,92,0.00,,,0.00,Wunderground v.1.15,2013-08-28 04:10:00,
2013-08-28 00:19:00,71.2,68.8,29.98,NNW,327,0.0,0.0,92,0.00,,,0.00,Wunderground v.1.15,2013-08-28 04:19:00,
2013-08-28 00:30:00,71.0,68.6,29.98,NNW,327,0.0,0.0,92,0.00,,,0.00,Wunderground v.1.15,2013-08-28 04:30:00,
2013-08-28 00:40:00,70.8,68.7,29.98,NNW,327,0.0,0.0,93,0.00,,,0.00,Wunderground v.1.15,2013-08-28 04:40:00,
2013-08-28 00:49:00,70.8,68.7,29.98,NNW,327,0.0,0.0,93,0.00,,,0.00,Wunderground v.1.15,2013-08-28 04:49:00,
2013-08-28 01:00:00,70.6,68.5,29.98,NNW,327,0.0,0.0,93,0.00,,,0.00,Wunderground v.1.15,2013-08-28 05:00:00,
2013-08-28 01:10:00,70.5,68.4,29.97,NNW,327,0.0,0.0,93,0.00,,,0.00,Wunderground v.1.15,2013-08-28 05:10:00,
2013-08-28 01:20:00,70.4,68.3,29.97,NNW,327,0.0,0.0,93,0.00,,,0.00,Wunderground v.1.15,2013-08-28 05:20:00,
2013-08-28 01:30:00,70.4,68.3,29.97,NNW,327,0.0,0.0,93,0.00,,,0.00,Wunderground v.1.15,2013-08-28 05:30:00,
2013-08-28 01:39:00,70.5,68.4,29.97,NNW,327,0.0,0.0,93,0.00,,,0.00,Wunderground v.1.15,2013-08-28 05:39:00,
2013-08-28 01:50:00,70.6,68.5,29.97,NNW,327,0.0,0.0,93,0.00,,,0.00,Wunderground v.1.15,2013-08-28 05:50:00,
2013-08-28 02:00:00,70.4,68.3,29.96,NNW,327,0.0,0.0,93,0.00,,,0.00,Wunderground v.1.15,2013-08-28 06:00:00,
2013-08-28 02:09:00,69.9,67.8,29.96,NNW,327,0.0,0.0,93,0.00,,,0.00,Wunderground v.1.15,2013-08-28 06:09:00,
2013-08-28 02:20:00,69.7,67.6,29.96,NNW,327,0.0,0.0,93,0.00,,,0.00,Wunderground v.1.15,2013-08-28 06:20:00,
2013-08-28 02:30:00,69.5,67.4,29.96,NNW,327,0.0,0.0,93,0.00,,,0.00,Wunderground v.1.15,2013-08-28 06:30:00,
2013-08-28 02:40:00,69.4,67.3,29.95,NNW,327,0.0,0.0,93,0.00,,,0.00,Wunderground v.1.15,2013-08-28 06:40:00,
2013-08-28 02:50:00,69.2,67.1,29.95,NNW,327,0.0,0.0,93,0.00,,,0.00,Wunderground v.1.15,2013-08-28 06:50:00,
2013-08-28 02:59:00,69.1,67.0,29.95,NNW,327,0.0,0.0,93,0.00,,,0.00,Wunderground v.1.15,2013-08-28 06:59:00,
2013-08-28 03:10:00,68.9,66.8,29.95,NNW,327,0.0,0.0,93,0.00,,,0.00,Wunderground v.1.15,2013-08-28 07:10:00,
2013-08-28 03:20:00,68.7,66.6,29.95,NNW,327,0.0,0.0,93,0.00,,,0.00,Wunderground v.1.15,2013-08-28 07:20:00,
2013-08-28 03:29:00,68.5,66.4,29.95,NNW,327,0.0,0.0,93,0.00,,,0.00,Wunderground v.1.15,2013-08-28 07:29:00,
2013-08-28 03:40:00,68.4,66.3,29.95,NNW,327,0.0,0.0,93,0.00,,,0.00,Wunderground v.1.15,2013-08-28 07:40:00,
2013-08-28 03:50:00,68.3,66.5,29.94,NNW,327,0.0,0.0,94,0.00,,,0.00,Wunderground v.1.15,2013-08-28 07:50:00,
2013-08-28 03:59:00,68.1,66.3,29.94,NNW,327,0.0,0.0,94,0.00,,,0.00,Wunderground v.1.15,2013-08-28 07:59:00,
2013-08-28 04:10:00,67.9,66.1,29.94,NNW,327,0.0,0.0,94,0.00,,,0.00,Wunderground v.1.15,2013-08-28 08:10:00,
2013-08-28 04:20:00,67.7,65.9,29.93,NNW,327,0.0,0.0,94,0.00,,,0.00,Wunderground v.1.15,2013-08-28 08:20:00,
2013-08-28 04:29:00,67.6,65.8,29.93,NNW,327,0.0,0.0,94,0.00,,,0.00,Wunderground v.1.15,2013-08-28 08:29:00,
2013-08-28 04:40:00,67.5,65.7,29.93,NNW,327,0.0,0.0,94,0.00,,,0.00,Wunderground v.1.15,2013-08-28 08:40:00,
2013-08-28 04:50:00,67.4,65.6,29.93,NNW,327,0.0,0.0,94,0.00,,,0.00,Wunderground v.1.15,2013-08-28 08:50:00,
2013-08-28 04:59:00,67.2,65.4,29.94,NNW,327,0.0,0.0,94,0.00,,,0.00,Wunderground v.1.15,2013-08-28 08:59:00,
2013-08-28 05:10:00,67.1,65.3,29.94,NNW,327,0.0,0.0,94,0.00,,,0.00,Wunderground v.1.15,2013-08-28 09:10:00,
2013-08-28 05:20:00,66.9,65.1,29.94,NNW,327,0.0,0.0,94,0.00,,,0.00,Wunderground v.1.15,2013-08-28 09:20:00,
2013-08-28 05:30:00,66.8,65.0,29.94,NNW,327,0.0,0.0,94,0.00,,,0.00,Wunderground v.1.15,2013-08-28 09:30:00,
2013-08-28 05:40:00,66.8,65.0,29.95,NNW,327,0.0,0.0,94,0.00,,,0.00,Wunderground v.1.15,2013-08-28 09:40:00,
2013-08-28 05:50:00,66.6,64.8,29.95,NNW,327,0.0,0.0,94,0.00,,,0.00,Wunderground v.1.15,2013-08-28 09:50:00,
2013-08-28 05:59:00,66.6,64.8,29.95,NNW,327,0.0,0.0,94,0.00,,,0.00,Wunderground v.1.15,2013-08-28 09:59:00,
2013-08-28 06:10:00,66.5,64.7,29.95,NNW,327,0.0,0.0,94,0.00,,,0.00,Wunderground v.1.15,2013-08-28 10:10:00,
2013-08-28 06:19:00,66.4,64.6,29.95,NNW,327,0.0,0.0,94,0.00,,,0.00,Wunderground v.1.15,2013-08-28 10:19:00,
2013-08-28 06:30:00,66.3,64.5,29.95,NNW,327,0.0,0.0,94,0.00,,,0.00,Wunderground v.1.15,2013-08-28 10:30:00,
2013-08-28 06:40:00,66.1,64.3,29.95,NNW,327,0.0,0.0,94,0.00,,,0.00,Wunderground v.1.15,2013-08-28 10:40:00,
2013-08-28 06:50:00,66.1,64.3,29.95,NNW,327,0.0,0.0,94,0.00,,,0.00,Wunderground v.1.15,2013-08-28 10:50:00,
2013-08-28 07:00:00,66.1,64.3,29.95,NNW,327,0.0,0.0,94,0.00,,,0.00,Wunderground v.1.15,2013-08-28 11:00:00,
2013-08-28 07:10:00,66.2,64.4,29.96,NNW,327,0.0,0.0,94,0.00,,,0.00,Wunderground v.1.15,2013-08-28 11:10:00,
2013-08-28 07:19:00,66.2,64.7,29.96,NNW,327,0.0,0.0,95,0.00,,,0.00,Wunderground v.1.15,2013-08-28 11:19:00,
2013-08-28 07:30:00,66.2,64.4,29.97,NNW,329,0.0,0.0,94,0.00,,,0.00,Wunderground v.1.15,2013-08-28 11:30:00,
2013-08-28 07:39:00,66.3,64.8,29.97,NNW,329,0.0,0.0,95,0.00,,,0.00,Wunderground v.1.15,2013-08-28 11:39:00,
2013-08-28 07:50:00,66.7,65.2,29.97,NNW,329,0.0,0.0,95,0.00,,,0.00,Wunderground v.1.15,2013-08-28 11:50:00,
2013-08-28 08:00:00,67.2,65.7,29.97,NNW,329,0.0,0.0,95,0.00,,,0.00,Wunderground v.1.15,2013-08-28 12:00:00,
2013-08-28 08:09:00,67.4,65.9,29.98,NNW,329,0.0,0.0,95,0.00,,,0.00,Wunderground v.1.15,2013-08-28 12:09:00,
2013-08-28 08:20:00,67.6,66.1,29.98,NNW,329,0.0,0.0,95,0.00,,,0.00,Wunderground v.1.15,2013-08-28 12:20:00,
2013-08-28 08:30:00,68.0,66.5,29.97,NNW,329,0.0,0.0,95,0.00,,,0.00,Wunderground v.1.15,2013-08-28 12:30:00,
2013-08-28 08:40:00,68.8,67.3,29.97,NNW,329,0.0,0.0,95,0.00,,,0.00,Wunderground v.1.15,2013-08-28 12:40:00,
2013-08-28 08:50:00,69.3,67.8,29.98,NNW,329,0.0,0.0,95,0.00,,,0.00,Wunderground v.1.15,2013-08-28 12:50:00,
2013-08-28 09:00:00,70.0,68.5,29.97,NNW,329,0.0,0.0,95,0.00,,,0.00,Wunderground v.1.15,2013-08-28 13:00:00,
2013-08-28 09:09:00,71.0,69.5,29.97,NNW,329,0.0,0.0,95,0.00,,,0.00,Wunderground v.1.15,2013-08-28 13:09:00,
2013-08-28 09:20:00,71.7,70.2,29.97,NNW,329,0.0,0.0,95,0.00,,,0.00,Wunderground v.1.15,2013-08-28 13:20:00,
2013-08-28 09:30:00,72.7,71.2,29.98,NNW,329,0.0,0.0,95,0.00,,,0.00,Wunderground v.1.15,2013-08-28 13:30:00,
2013-08-28 09:39:00,73.6,72.1,29.98,NNW,329,0.0,0.0,95,0.00,,,0.00,Wunderground v.1.15,2013-08-28 13:39:00,
2013-08-28 09:50:00,74.1,72.3,29.98,NNW,329,0.0,0.0,94,0.00,,,0.00,Wunderground v.1.15,2013-08-28 13:50:00,
2013-08-28 10:00:00,74.6,72.8,29.98,NNW,329,0.0,0.0,94,0.00,,,0.00,Wunderground v.1.15,2013-08-28 14:00:00,
2013-08-28 10:10:00,75.0,72.8,29.98,NNW,329,0.0,0.0,93,0.00,,,0.00,Wunderground v.1.15,2013-08-28 14:10:00,
2013-08-28 10:20:00,75.2,73.0,29.98,NNW,329,0.0,0.0,93,0.00,,,0.00,Wunderground v.1.15,2013-08-28 14:20:00,
2013-08-28 10:30:00,75.6,73.4,29.98,NNW,329,0.0,0.0,93,0.00,,,0.00,Wunderground v.1.15,2013-08-28 14:30:00,
2013-08-28 10:40:00,76.1,73.9,29.99,NNW,329,0.0,0.0,93,0.00,,,0.00,Wunderground v.1.15,2013-08-28 14:40:00,
2013-08-28 10:50:00,76.7,74.5,29.99,NNW,329,0.0,0.0,93,0.00,,,0.00,Wunderground v.1.15,2013-08-28 14:50:00,
2013-08-28 10:59:00,77.2,74.4,29.98,NNW,329,0.0,0.0,91,0.00,,,0.00,Wunderground v.1.15,2013-08-28 14:59:00,
2013-08-28 11:10:00,77.8,75.0,29.99,NNW,329,0.0,0.0,91,0.00,,,0.00,Wunderground v.1.15,2013-08-28 15:10:00,
2013-08-28 11:19:00,78.3,75.1,29.99,NNW,329,0.0,0.0,90,0.00,,,0.00,Wunderground v.1.15,2013-08-28 15:19:00,
2013-08-28 11:30:00,79.2,75.7,29.99,NNW,329,0.0,0.0,89,0.00,,,0.00,Wunderground v.1.15,2013-08-28 15:30:00,
2013-08-28 11:40:00,79.8,76.3,29.99,NNW,329,0.0,0.0,89,0.00,,,0.00,Wunderground v.1.15,2013-08-28 15:40:00,
2013-08-28 11:50:00,80.3,76.8,29.99,NNW,329,0.0,0.0,89,0.00,,,0.00,Wunderground v.1.15,2013-08-28 15:50:00,
2013-08-28 12:00:00,80.2,76.7,29.99,NNW,329,0.0,0.0,89,0.00,,,0.00,Wunderground v.1.15,2013-08-28 16:00:00,
2013-08-28 12:10:00,80.1,76.6,29.99,NNW,329,0.0,0.0,89,0.00,,,0.00,Wunderground v.1.15,2013-08-28 16:10:00,
2013-08-28 12:20:00,80.3,76.8,29.98,NNW,329,0.0,0.0,89,0.00,,,0.00,Wunderground v.1.15,2013-08-28 16:20:00,
2013-08-28 12:29:00,80.2,76.3,29.97,NNW,329,0.0,0.0,88,0.00,,,0.00,Wunderground v.1.15,2013-08-28 16:29:00,
2013-08-28 12:40:00,80.4,76.2,29.97,NNW,329,0.0,0.0,87,0.00,,,0.00,Wunderground v.1.15,2013-08-28 16:40:00,
2013-08-28 12:49:00,80.6,76.7,29.97,NNW,329,0.0,0.0,88,0.00,,,0.00,Wunderground v.1.15,2013-08-28 16:49:00,
2013-08-28 13:00:00,80.6,76.4,29.98,NNW,329,0.0,0.0,87,0.00,,,0.00,Wunderground v.1.15,2013-08-28 17:00:00,
2013-08-28 13:10:00,80.5,76.6,29.97,NNW,329,0.0,0.0,88,0.00,,,0.00,Wunderground v.1.15,2013-08-28 17:10:00,
2013-08-28 13:20:00,79.8,76.3,29.97,NNW,329,0.0,0.0,89,0.00,,,0.00,Wunderground v.1.15,2013-08-28 17:20:00,
2013-08-28 13:30:00,79.3,76.1,29.97,NNW,329,0.0,0.0,90,0.00,,,0.00,Wunderground v.1.15,2013-08-28 17:30:00,
2013-08-28 13:40:00,79.2,76.3,29.97,NNW,329,0.0,0.0,91,0.00,,,0.00,Wunderground v.1.15,2013-08-28 17:40:00,
2013-08-28 13:49:00,79.4,76.5,29.96,NNW,329,0.0,0.0,91,0.00,,,0.00,Wunderground v.1.15,2013-08-28 17:49:00,
2013-08-28 14:00:00,79.4,76.5,29.96,NNW,329,0.0,0.0,91,0.00,,,0.00,Wunderground v.1.15,2013-08-28 18:00:00,
2013-08-28 14:10:00,79.6,76.7,29.95,NNW,329,0.0,0.0,91,0.00,,,0.00,Wunderground v.1.15,2013-08-28 18:10:00,
2013-08-28 14:20:00,79.7,76.8,29.95,NNW,329,0.0,0.0,91,0.00,,,0.00,Wunderground v.1.15,2013-08-28 18:20:00,
2013-08-28 14:30:00,79.7,76.8,29.95,NNW,329,0.0,0.0,91,0.00,,,0.00,Wunderground v.1.15,2013-08-28 18:30:00,
2013-08-28 14:39:00,79.7,76.8,29.94,NNW,329,0.0,0.0,91,0.00,,,0.00,Wunderground v.1.15,2013-08-28 18:39:00,
2013-08-28 14:50:00,79.7,76.8,29.94,NNW,329,0.0,0.0,91,0.00,,,0.00,Wunderground v.1.15,2013-08-28 18:50:00,
2013-08-28 15:00:00,79.6,76.7,29.94,NNW,329,0.0,0.0,91,0.00,,,0.00,Wunderground v.1.15,2013-08-28 19:00:00,
2013-08-28 15:09:00,79.4,76.5,29.94,NNW,329,0.0,0.0,91,0.00,,,0.00,Wunderground v.1.15,2013-08-28 19:09:00,
2013-08-28 15:20:00,79.4,76.5,29.93,NNW,329,0.0,0.0,91,0.00,,,0.00,Wunderground v.1.15,2013-08-28 19:20:00,
2013-08-28 15:30:00,79.3,76.4,29.93,NNW,329,0.0,0.0,91,0.00,,,0.00,Wunderground v.1.15,2013-08-28 19:30:00,
2013-08-28 15:39:00,79.2,76.3,29.93,NNW,329,0.0,0.0,91,0.00,,,0.00,Wunderground v.1.15,2013-08-28 19:39:00,
2013-08-28 15:50:00,79.2,76.3,29.92,NNW,329,0.0,0.0,91,0.00,,,0.00,Wunderground v.1.15,2013-08-28 19:50:00,
2013-08-28 16:00:00,79.2,76.3,29.92,NNW,327,0.0,0.0,91,0.00,,,0.00,Wunderground v.1.15,2013-08-28 20:00:00,
2013-08-28 16:09:00,79.1,76.6,29.92,NNW,327,0.0,0.0,92,0.00,,,0.00,Wunderground v.1.15,2013-08-28 20:09:00,
2013-08-28 16:20:00,79.2,76.7,29.92,NNW,327,0.0,0.0,92,0.00,,,0.00,Wunderground v.1.15,2013-08-28 20:20:00,
2013-08-28 16:30:00,79.4,76.9,29.92,NNW,327,0.0,0.0,92,0.00,,,0.00,Wunderground v.1.15,2013-08-28 20:30:00,
2013-08-28 16:39:00,79.6,77.1,29.92,NNW,327,0.0,0.0,92,0.00,,,0.00,Wunderground v.1.15,2013-08-28 20:39:00,
2013-08-28 16:50:00,79.5,77.0,29.92,NNW,327,0.0,0.0,92,0.00,,,0.00,Wunderground v.1.15,2013-08-28 20:50:00,
2013-08-28 17:00:00,79.2,76.3,29.91,NNW,327,0.0,0.0,91,0.00,,,0.00,Wunderground v.1.15,2013-08-28 21:00:00,
2013-08-28 17:10:00,78.7,76.2,29.91,NNW,327,0.0,0.0,92,0.00,,,0.00,Wunderground v.1.15,2013-08-28 21:10:00,
2013-08-28 17:20:00,78.7,76.2,29.91,NNW,327,0.0,0.0,92,0.00,,,0.00,Wunderground v.1.15,2013-08-28 21:20:00,
2013-08-28 17:30:00,78.5,76.0,29.90,NNW,327,0.0,0.0,92,0.00,,,0.00,Wunderground v.1.15,2013-08-28 21:30:00,
2013-08-28 17:39:00,78.5,76.0,29.91,NNW,327,0.0,0.0,92,0.00,,,0.00,Wunderground v.1.15,2013-08-28 21:39:00,
2013-08-28 17:50:00,78.5,76.3,29.91,NNW,327,0.0,0.0,93,0.00,,,0.00,Wunderground v.1.15,2013-08-28 21:50:00,
2013-08-28 18:00:00,78.5,76.3,29.90,NNW,327,0.0,0.0,93,0.00,,,0.00,Wunderground v.1.15,2013-08-28 22:00:00,
2013-08-28 18:09:00,78.5,76.3,29.90,NNW,327,0.0,0.0,93,0.00,,,0.00,Wunderground v.1.15,2013-08-28 22:09:00,
2013-08-28 18:20:00,78.4,76.2,29.90,NNW,327,0.0,0.0,93,0.00,,,0.00,Wunderground v.1.15,2013-08-28 22:20:00,
2013-08-28 18:30:00,78.2,76.0,29.90,NNW,327,0.0,0.0,93,0.00,,,0.00,Wunderground v.1.15,2013-08-28 22:30:00,
2013-08-28 18:39:00,78.1,75.9,29.90,NNW,327,0.0,0.0,93,0.00,,,0.00,Wunderground v.1.15,2013-08-28 22:39:00,
2013-08-28 18:50:00,78.0,75.8,29.90,NNW,327,0.0,0.0,93,0.00,,,0.00,Wunderground v.1.15,2013-08-28 22:50:00,
2013-08-28 19:00:00,78.0,75.8,29.90,NNW,327,0.0,0.0,93,0.00,,,0.00,Wunderground v.1.15,2013-08-28 23:00:00,
2013-08-28 19:10:00,77.8,75.6,29.90,NNW,327,0.0,0.0,93,0.00,,,0.00,Wunderground v.1.15,2013-08-28 23:10:00,
2013-08-28 19:20:00,77.6,75.4,29.90,NNW,327,0.0,0.0,93,0.00,,,0.00,Wunderground v.1.15,2013-08-28 23:20:00,
2013-08-28 19:30:00,77.5,75.3,29.90,NNW,327,0.0,0.0,93,0.00,,,0.00,Wunderground v.1.15,2013-08-28 23:30:00,
2013-08-28 19:39:00,77.2,75.0,29.90,NNW,327,0.0,0.0,93,0.00,,,0.00,Wunderground v.1.15,2013-08-28 23:39:00,
2013-08-28 19:50:00,76.8,74.6,29.90,NNW,327,0.0,0.0,93,0.00,,,0.00,Wunderground v.1.15,2013-08-28 23:50:00,
2013-08-28 19:59:00,76.5,74.3,29.89,NNW,327,0.0,0.0,93,0.00,,,0.00,Wunderground v.1.15,2013-08-28 23:59:00,
2013-08-28 20:10:00,76.3,74.1,29.89,NNW,327,0.0,0.0,93,0.00,,,0.00,Wunderground v.1.15,2013-08-29 00:10:00,
2013-08-28 20:19:00,76.0,73.8,29.90,NNW,327,0.0,0.0,93,0.00,,,0.00,Wunderground v.1.15,2013-08-29 00:19:00,
2013-08-28 20:30:00,75.8,73.6,29.89,NNW,327,0.0,0.0,93,0.00,,,0.00,Wunderground v.1.15,2013-08-29 00:30:00,
2013-08-28 20:40:00,75.6,73.4,29.89,NNW,327,0.0,0.0,93,0.00,,,0.00,Wunderground v.1.15,2013-08-29 00:40:00,
2013-08-28 20:50:00,75.4,73.2,29.89,NNW,327,0.0,0.0,93,0.00,,,0.00,Wunderground v.1.15,2013-08-29 00:50:00,
2013-08-28 21:00:00,75.1,73.3,29.89,NNW,327,0.0,0.0,94,0.00,,,0.00,Wunderground v.1.15,2013-08-29 01:00:00,
2013-08-28 21:10:00,74.9,73.1,29.90,NNW,327,0.0,0.0,94,0.00,,,0.00,Wunderground v.1.15,2013-08-29 01:10:00,
2013-08-28 21:19:00,74.8,73.0,29.90,NNW,327,0.0,0.0,94,0.00,,,0.00,Wunderground v.1.15,2013-08-29 01:19:00,
2013-08-28 21:30:00,74.7,72.9,29.90,NNW,327,0.0,0.0,94,0.00,,,0.00,Wunderground v.1.15,2013-08-29 01:30:00,
2013-08-28 21:40:00,74.6,72.8,29.90,NNW,327,0.0,0.0,94,0.00,,,0.00,Wunderground v.1.15,2013-08-29 01:40:00,
2013-08-28 21:49:00,74.5,72.7,29.90,NNW,327,0.0,0.0,94,0.00,,,0.00,Wunderground v.1.15,2013-08-29 01:49:00,
2013-08-28 22:00:00,74.4,72.6,29.90,NNW,327,0.0,0.0,94,0.00,,,0.00,Wunderground v.1.15,2013-08-29 02:00:00,
2013-08-28 22:10:00,74.2,72.4,29.90,NNW,327,0.0,0.0,94,0.00,,,0.00,Wunderground v.1.15,2013-08-29 02:10:00,
2013-08-28 22:19:00,74.2,72.4,29.89,NNW,327,0.0,0.0,94,0.00,,,0.00,Wunderground v.1.15,2013-08-29 02:19:00,
2013-08-28 22:30:00,74.1,72.3,29.89,NNW,327,0.0,0.0,94,0.00,,,0.00,Wunderground v.1.15,2013-08-29 02:30:00,
2013-08-28 22:40:00,74.0,72.2,29.89,NNW,327,0.0,0.0,94,0.00,,,0.00,Wunderground v.1.15,2013-08-29 02:40:00,
2013-08-28 22:50:00,74.0,72.5,29.89,NNW,327,0.0,0.0,95,0.00,,,0.00,Wunderground v.1.15,2013-08-29 02:50:00,
2013-08-28 23:00:00,74.0,72.2,29.88,NNW,327,0.0,0.0,94,0.00,,,0.00,Wunderground v.1.15,2013-08-29 03:00:00,
2013-08-28 23:10:00,73.9,72.1,29.89,NNW,327,0.0,0.0,94,0.00,,,0.00,Wunderground v.1.15,2013-08-29 03:10:00,
2013-08-28 23:20:00,73.9,72.4,29.88,NNW,327,0.0,0.0,95,0.00,,,0.00,Wunderground v.1.15,2013-08-29 03:20:00,
2013-08-28 23:29:00,73.9,72.4,29.88,NNW,327,0.0,0.0,95,0.00,,,0.00,Wunderground v.1.15,2013-08-29 03:29:00,
2013-08-28 23:40:00,73.9,72.4,29.87,NNW,327,0.0,0.0,95,0.00,,,0.00,Wunderground v.1.15,2013-08-29 03:40:00,
2013-08-28 23:49:00,73.9,72.4,29.87,NNW,327,0.0,0.0,95,0.00,,,0.00,Wunderground v.1.15,2013-08-29 03:49:00,